Find Starlink 36106

NORAD ID: 67018 Int'l Des: 2025-293 Owner: SPXS Country: US Constellation: starlink operational
LEOCIRCULAR

Current View

Loading 3D Globe...

About Starlink 36106

Description loading...

Upcoming Passes

Passes for default location (London). Set your location on the main map for personalized predictions.

Altitude History

Loading altitude history...

Two-Line Element Set

1 67018U 25293R 26149.68730247 .00003759 00000-0 32262-3 0 9994
2 67018 70.0019 250.1021 0003247 267.9937 92.0850 14.98337211 27025
Epoch: May 29, 2026 • Age: 20 hours

Current Status

Altitude 584.4 km
Velocity 7.57 km/s
Sub-Earth Point 62.91°N, 135.5°W
Launch Date Dec 10, 2025
Age 0.4 years
Type internet

Technical Details

Classification Payload
Mass 575.00 kg
Dry Mass 530.00 kg
Total Mass 575.00 kg
Length 0.30 m
Diameter 4.10 m
Span 29.00 m
Shape Box + pan
Manufacturer SPXS
Bus Type Starlink V2MO
Phase Status In Orbit
Owner/State SPXS/US

Most Searched